CW5066 Weather Reports


Display with metric or nautical units.
time (UTC)temp
F
wind
direction
speed
MPH
gust
MPH
rain 1hr
in
rain 24hr
in
rain mn
in
humidity
%
barometer
mb
20210117081523 21 45 10.0 24.0 0.00 0.00 0.00 67 1017.5
20210117080515 22 45 14.0 28.0 0.00 0.00 0.00 66 1017.5
20210117075524 22 45 11.0 29.0 0.00 0.00 0.00 66 1017.6
20210117074515 22 45 11.0 20.0 0.00 0.00 0.00 66 1018.0
20210117073517 22 23 13.0 26.0 0.00 0.00 0.00 66 1018.0
20210117072517 22 45 17.0 34.0 0.00 0.00 0.00 66 1017.9
20210117071517 22 23 16.0 28.0 0.00 0.00 0.00 63 1017.9
20210117070515 22 23 14.0 29.0 0.00 0.00 0.00 63 1017.9
20210117065525 22 23 17.0 37.0 0.00 0.00 0.00 62 1017.6
20210117064526 22 0 14.0 28.0 0.00 0.00 0.00 64 1017.9
20210117063519 22 23 17.0 29.0 0.00 0.00 0.00 64 1017.8
20210117062516 22 23 11.0 21.0 0.00 0.00 0.00 67 1018.2
20210117061519 22 0 10.0 22.0 0.00 0.00 0.00 67 1018.3
20210117060519 22 23 15.0 26.0 0.00 0.00 0.00 69 1018.5
20210117055527 22 45 17.0 31.0 0.00 0.00 0.00 68 1018.4
20210117054520 23 23 16.0 30.0 0.00 0.00 0.00 65 1018.1
20210117053525 23 0 16.0 27.0 0.00 0.00 0.00 65 1018.0
20210117052517 23 45 16.0 30.0 0.00 0.00 0.00 65 1017.8
20210117051518 23 23 11.0 22.0 0.00 0.00 0.00 64 1017.2
20210117050523 23 23 14.0 30.0 0.00 0.00 0.00 64 1017.5
20210117045517 23 23 15.0 25.0 0.00 0.00 0.00 64 1017.3
20210117044519 23 23 14.0 30.0 0.00 0.00 0.00 65 1017.1
20210117043521 23 23 13.0 28.0 0.00 0.00 0.00 66 1017.2
20210117042518 23 23 13.0 24.0 0.00 0.00 0.00 66 1017.0
20210117041525 23 0 14.0 30.0 0.00 0.00 0.00 65 1017.0
20210117040518 23 23 14.0 30.0 0.00 0.00 0.00 65 1016.8
20210117035516 23 0 15.0 33.0 0.00 0.00 0.00 65 1016.1
20210117034522 23 23 19.0 36.0 0.00 0.00 0.00 64 1016.1
20210117033521 23 0 18.0 33.0 0.00 0.00 0.00 64 1016.0
20210117032519 23 23 19.0 34.0 0.00 0.00 0.00 64 1016.2
20210117031517 23 0 17.0 31.0 0.00 0.00 0.00 64 1015.9
20210117030520 23 45 18.0 39.0 0.00 0.00 0.00 64 1016.2
20210117025518 23 23 19.0 35.0 0.00 0.00 0.00 64 1016.3
20210117024521 23 45 20.0 36.0 0.00 0.00 0.00 63 1016.1
20210117023537 23 23 14.0 30.0 0.00 0.00 0.00 62 1016.0
20210117022529 23 0 17.0 34.0 0.00 0.00 0.00 60 1015.5
20210117021522 23 338 16.0 34.0 0.00 0.00 0.00 59 1015.3
20210117020524 23 0 18.0 32.0 0.00 0.00 0.00 60 1015.7
20210117015519 23 0 16.0 32.0 0.00 0.00 0.00 61 1015.7
20210117014520 23 0 16.0 32.0 0.00 0.00 0.00 61 1015.7
20210117013522 23 338 15.0 29.0 0.00 0.00 0.00 60 1014.9
20210117012516 23 0 18.0 36.0 0.00 0.00 0.00 59 1014.6
20210117011525 23 0 16.0 39.0 0.00 0.00 0.00 57 1015.1
20210117010516 23 0 15.0 34.0 0.00 0.00 0.00 57 1015.8
20210117005521 24 23 15.0 33.0 0.00 0.00 0.00 55 1015.7
20210117004527 24 0 15.0 30.0 0.00 0.00 0.00 53 1015.5
20210117003523 24 23 16.0 30.0 0.00 0.00 0.00 53 1015.1
20210117002523 24 23 17.0 30.0 0.00 0.00 0.00 54 1016.2
20210117001523 24 23 13.0 34.0 0.00 0.00 0.00 57 1016.0
20210117000536 24 23 15.0 30.0 0.00 0.00 0.00 57 1016.1
20210116235518 24 0 14.0 32.0 0.00 0.00 0.00 56 1016.4
20210116234522 24 0 16.0 33.0 0.00 0.00 0.00 56 1016.4
20210116233522 24 23 14.0 27.0 0.00 0.00 0.00 57 1015.9
20210116232519 24 23 18.0 33.0 0.00 0.00 0.00 59 1015.9
20210116231520 25 45 18.0 39.0 0.00 0.00 0.00 61 1015.4
20210116230518 25 45 17.0 34.0 0.00 0.00 0.00 60 1016.0
20210116225518 25 23 19.0 40.0 0.00 0.00 0.00 61 1016.0
20210116224523 25 0 20.0 32.0 0.00 0.00 0.00 61 1016.5
20210116223525 26 45 20.0 43.0 0.00 0.00 0.00 62 1016.4
20210116222517 25 0 20.0 39.0 0.00 0.00 0.00 62 1016.5
20210116221519 25 23 19.0 40.0 0.00 0.00 0.00 62 1016.5
20210116220521 25 0 15.0 30.0 0.00 0.00 0.00 64 1017.3
20210116215516 24 23 21.0 38.0 0.00 0.00 0.00 66 1016.9
20210116214602 24 0 20.0 37.0 0.00 0.00 0.00 67 1017.1
20210116213521 26 45 13.0 38.0 0.00 0.00 0.00 64 1018.5
20210116212526 26 45 18.0 33.0 0.00 0.00 0.00 64 1018.7
20210116211523 26 68 9.0 26.0 0.00 0.00 0.00 64 1019.1
20210116210525 26 23 14.0 37.0 0.00 0.00 0.00 65 1019.5
20210116205525 26 45 14.0 28.0 0.00 0.00 0.00 64 1019.6
20210116204519 26 45 13.0 27.0 0.00 0.00 0.00 61 1019.5
20210116203536 26 23 9.0 19.0 0.00 0.00 0.00 61 1019.6
20210116202519 26 45 8.0 17.0 0.00 0.00 0.00 64 1019.6
20210116201530 26 23 15.0 26.0 0.00 0.00 0.00 64 1019.4
20210116200527 26 23 13.0 34.0 0.00 0.00 0.00 64 1018.9
20210116195517 27 45 9.0 28.0 0.00 0.00 0.00 62 1018.9
20210116194551 26 45 15.0 30.0 0.00 0.00 0.00 61 1019.3
20210116193603 27 45 10.0 20.0 0.00 0.00 0.00 60 1019.8
20210116193052 26 68 10.0 21.0 0.00 0.00 0.00 64 1019.2
20210116191435 27 45 11.0 22.0 0.00 0.00 0.00 58 1019.3
20210116185553 27 45 14.0 26.0 0.00 0.00 0.00 56 1019.3
20210116184545 27 45 9.0 20.0 0.00 0.00 0.00 56 1019.2
20210116183530 27 23 12.0 21.0 0.00 0.00 0.00 57 1018.7
20210116182848 26 45 16.0 27.0 0.00 0.00 0.00 57 1018.8
20210116181830 27 45 11.0 26.0 0.00 0.00 0.00 57 1019.5
20210116180521 26 45 10.0 19.0 0.00 0.00 0.00 60 1019.9
20210116175521 26 23 6.0 16.0 0.00 0.00 0.00 62 1020.3
20210116174522 26 45 10.0 20.0 0.00 0.00 0.00 61 1020.6
20210116173525 26 45 10.0 24.0 0.00 0.00 0.00 62 1020.9
20210116172523 26 45 10.0 21.0 0.00 0.00 0.00 64 1021.3
20210116171526 25 45 12.0 22.0 0.00 0.00 0.00 65 1020.9
20210116170516 25 45 12.0 24.0 0.00 0.00 0.00 65 1020.9
20210116165520 25 90 8.0 17.0 0.00 0.00 0.00 66 1021.3
20210116164529 25 68 4.0 13.0 0.00 0.00 0.00 65 1020.5
20210116163525 25 338 1.0 6.0 0.00 0.00 0.00 66 1020.2
20210116162527 25 315 3.0 12.0 0.00 0.00 0.00 66 1020.8
20210116161531 25 0 3.0 11.0 0.00 0.00 0.00 64 1020.5
20210116160523 25 45 6.0 14.0 0.00 0.00 0.00 62 1020.4
20210116155528 25 45 9.0 21.0 0.00 0.00 0.00 64 1019.6
20210116154524 24 45 9.0 17.0 0.00 0.00 0.00 64 1019.4
20210116153520 24 45 9.0 19.0 0.00 0.00 0.00 64 1018.6
20210116152517 24 45 9.0 19.0 0.00 0.00 0.00 65 1018.3
20210116151526 24 45 8.0 25.0 0.00 0.00 0.00 66 1018.6
20210116150527 24 45 9.0 19.0 0.00 0.00 0.00 67 1018.2
20210116145520 24 45 11.0 19.0 0.00 0.00 0.00 68 1017.9
20210116144536 23 45 11.0 27.0 0.00 0.00 0.00 71 1017.0
20210116143525 23 23 9.0 20.0 0.00 0.00 0.00 72 1017.0
20210116142516 23 45 12.0 23.0 0.00 0.00 0.00 75 1017.8
20210116141553 23 68 10.0 28.0 0.00 0.00 0.00 75 1017.7
20210116140532 23 45 13.0 23.0 0.00 0.00 0.00 76 1017.7
20210116135616 23 135 8.0 26.0 0.00 0.00 0.00 80 1017.6
20210116134526 23 68 15.0 29.0 0.00 0.00 0.00 80 1017.3
20210116133526 22 90 9.0 25.0 0.00 0.00 0.00 85 1016.2
20210116132517 22 113 2.0 13.0 0.00 0.00 0.00 85 1016.7
20210116131520 23 45 5.0 23.0 0.00 0.00 0.00 84 1016.5
20210116130701 23 135 6.0 19.0 0.00 0.00 0.00 83 1016.4
20210116125536 23 45 14.0 41.0 0.00 0.00 0.00 83 1015.8
20210116124527 23 23 23.0 46.0 0.00 0.00 0.00 82 1014.8
20210116123603 23 338 19.0 35.0 0.00 0.00 0.00 81 1013.1
20210116122521 25 23 20.0 46.0 0.00 0.00 0.00 73 1014.6
20210116121526 25 0 20.0 44.0 0.00 0.00 0.00 73 1014.5
20210116120522 26 0 16.0 40.0 0.00 0.00 0.00 68 1015.2
20210116115527 26 23 15.0 28.0 0.00 0.00 0.00 65 1016.7
20210116114523 26 45 12.0 25.0 0.00 0.00 0.00 62 1017.7
20210116113532 26 0 4.0 16.0 0.00 0.00 0.00 63 1017.5
20210116112519 26 0 9.0 20.0 0.00 0.00 0.00 64 1016.8
20210116111527 25 0 15.0 27.0 0.00 0.00 0.00 68 1016.5
20210116110524 25 23 17.0 35.0 0.00 0.00 0.00 70 1017.0
20210116105523 26 23 17.0 32.0 0.00 0.00 0.00 65 1017.7
20210116104520 27 23 21.0 36.0 0.00 0.00 0.00 59 1018.3
20210116103528 27 45 22.0 39.0 0.00 0.00 0.00 57 1018.2
20210116102532 28 23 22.0 44.0 0.00 0.00 0.00 55 1018.2
20210116101515 28 23 22.0 42.0 0.00 0.00 0.00 52 1017.6
20210116100518 29 23 24.0 41.0 0.00 0.00 0.00 50 1018.2
20210116095517 29 23 25.0 50.0 0.00 0.00 0.00 48 1018.6
20210116094530 30 23 22.0 45.0 0.00 0.00 0.00 48 1019.3
20210116093525 30 0 19.0 40.0 0.00 0.00 0.00 47 1018.9
20210116092523 30 0 20.0 34.0 0.00 0.00 0.00 46 1019.1
20210116091524 30 0 18.0 37.0 0.00 0.00 0.00 47 1019.6
20210116090528 30 0 19.0 35.0 0.00 0.00 0.00 48 1020.5
20210116085519 31 270 20.0 29.0 0.00 0.00 0.00 44 1020.6
20210116084536 31 270 25.0 47.0 0.00 0.00 0.00 46 1020.4
20210116083527 31 0 17.0 37.0 0.00 0.00 0.00 46 1020.6
20210116082515 31 23 17.0 36.0 0.00 0.00 0.00 46 1020.0